Weather reports worldwide

Advertisment
Chateau Chinon, France (7270): temperature & dewpoint: 10.07.2018 18:00:00 - 16.07.2018 18:00:00 (CEST)Chateau Chinon, France (7270): wind speed & gusts: 10.07.2018 18:00:00 - 16.07.2018 18:00:00 (CEST)Chateau Chinon, France (7270): wind direction: 10.07.2018 18:00:00 - 16.07.2018 18:00:00 (CEST)Chateau Chinon, France (7270): precipitation: 10.07.2018 18:00:00 - 16.07.2018 18:00:00 (CEST)
Date & Time tt [°C] td [°C] ff [km/h] ff [kn] fx [km/h] fx [kn] dd rr [mm]
16.07.2018 18:00:00 - - - - - - - -
16.07.2018 17:00:00 27,2 12,8 4 2 16 9 S 0,0
16.07.2018 16:00:00 28,3 9,1 4 2 21 11 WNW 0,0
16.07.2018 15:00:00 28,2 9,9 4 2 18 10 NW 0,0
16.07.2018 14:00:00 27,0 7,9 4 2 22 12 N -
16.07.2018 13:00:00 27,0 10,7 4 2 15 8 NNE 0,0
16.07.2018 12:00:00 27,0 11,5 4 2 15 8 N 0,0
16.07.2018 11:00:00 25,9 10,9 2 1 13 7 WNW 0,0
16.07.2018 10:00:00 24,6 10,8 5 3 13 7 NE 0,0
16.07.2018 09:00:00 24,3 11,3 4 2 9 5 ENE 0,0
16.07.2018 08:00:00 21,1 10,9 2 1 8 4 E -
16.07.2018 07:00:00 17,5 9,1 4 2 8 4 SE 0,0
16.07.2018 06:00:00 17,4 8,3 4 2 9 5 SE 0,0
16.07.2018 05:00:00 16,8 8,0 4 2 13 7 SE 0,0
16.07.2018 04:00:00 17,3 7,9 4 2 15 8 ESE 0,0
16.07.2018 03:00:00 17,7 8,5 4 2 11 6 SE 0,0
16.07.2018 02:00:00 17,8 8,9 5 3 21 11 SE -
16.07.2018 01:00:00 17,7 9,8 5 3 13 7 SSE 0,0
16.07.2018 00:00:00 18,2 11,7 5 3 15 8 SSE 0,0
15.07.2018 23:00:00 16,9 13,2 5 3 22 12 ESE 0,0
15.07.2018 22:00:00 18,3 11,8 5 3 26 14 E 0,0
15.07.2018 21:00:00 20,2 11,1 4 2 16 9 E 0,0
15.07.2018 20:00:00 23,9 13,1 0 0 16 9 N -
15.07.2018 19:00:00 23,6 10,3 5 3 22 12 ESE 0,0
15.07.2018 18:00:00 22,4 11,8 5 3 37 20 E 0,0
15.07.2018 17:00:00 22,0 14,4 0 0 22 12 N 0,0
15.07.2018 16:00:00 24,0 12,6 5 3 22 12 N 0,0
15.07.2018 15:00:00 28,2 12,9 4 2 18 10 NW 0,0
15.07.2018 14:00:00 28,4 10,6 4 2 15 8 W -
15.07.2018 13:00:00 27,5 10,7 4 2 15 8 W 0,0
15.07.2018 12:00:00 26,9 15,0 4 2 11 6 NW 0,0
15.07.2018 11:00:00 24,8 14,9 4 2 9 5 W 0,0
15.07.2018 10:00:00 23,9 13,4 2 1 8 4 SW 0,0
15.07.2018 09:00:00 22,8 12,4 4 2 9 5 SSE 0,0
15.07.2018 08:00:00 21,2 10,7 5 3 9 5 SSE -
15.07.2018 07:00:00 19,2 9,1 4 2 9 5 SSW 0,0
15.07.2018 06:00:00 18,6 8,5 4 2 9 5 SE 0,0
15.07.2018 05:00:00 19,0 8,3 5 3 9 5 SE 0,0
15.07.2018 04:00:00 19,0 9,2 4 2 9 5 SE 0,0
15.07.2018 03:00:00 19,4 10,1 4 2 9 5 SE 0,0
15.07.2018 02:00:00 20,3 10,1 4 2 11 6 ESE -
15.07.2018 01:00:00 19,9 10,3 2 1 9 5 NE 0,0
15.07.2018 00:00:00 20,5 10,6 5 3 9 5 SSE 0,0
14.07.2018 23:00:00 20,5 11,4 5 3 8 4 SE 0,0
14.07.2018 22:00:00 21,4 11,7 4 2 5 3 SE 0,0
14.07.2018 21:00:00 21,7 11,7 0 0 4 2 N 0,0
14.07.2018 20:00:00 25,7 14,5 0 0 13 7 N -
14.07.2018 19:00:00 26,0 11,4 5 3 15 8 SSW 0,0
14.07.2018 18:00:00 25,8 10,0 2 1 8 4 SW 0,0
14.07.2018 17:00:00 26,3 12,7 4 2 11 6 WNW 0,0
14.07.2018 16:00:00 28,0 9,8 4 2 13 7 NW 0,0
14.07.2018 15:00:00 27,0 9,8 4 2 16 9 N 0,0
14.07.2018 14:00:00 26,3 10,8 4 2 13 7 SSW -
14.07.2018 13:00:00 26,5 9,4 4 2 13 7 NNW 0,0
14.07.2018 12:00:00 25,4 11,2 2 1 9 5 NW 0,0
14.07.2018 11:00:00 24,9 11,5 2 1 8 4 NNW 0,0
14.07.2018 10:00:00 25,8 11,5 0 0 8 4 N 0,0
14.07.2018 09:00:00 24,1 10,7 4 2 13 7 SE 0,0
14.07.2018 08:00:00 20,7 10,5 5 3 13 7 SE -
14.07.2018 07:00:00 18,7 9,7 5 3 13 7 ESE 0,0
14.07.2018 06:00:00 18,1 8,9 5 3 9 5 SE 0,0
14.07.2018 05:00:00 18,4 8,6 2 1 11 6 E 0,0
14.07.2018 04:00:00 18,3 8,3 4 2 9 5 ESE 0,0
14.07.2018 03:00:00 18,4 7,8 2 1 8 4 E 0,0
14.07.2018 02:00:00 18,5 8,2 4 2 9 5 ESE -
14.07.2018 01:00:00 19,4 8,1 4 2 9 5 ESE 0,0
14.07.2018 00:00:00 19,9 8,6 4 2 11 6 E 0,0
13.07.2018 23:00:00 20,2 10,0 4 2 9 5 E 0,0
13.07.2018 22:00:00 20,4 12,4 4 2 8 4 ESE 0,0
13.07.2018 21:00:00 21,6 8,5 4 2 8 4 NNE 0,0
13.07.2018 20:00:00 24,9 12,8 0 0 9 5 N -
13.07.2018 19:00:00 26,1 8,6 4 2 13 7 NNE 0,0
13.07.2018 18:00:00 26,8 11,7 4 2 13 7 NW 0,0
13.07.2018 17:00:00 26,1 11,8 2 1 13 7 N 0,0
13.07.2018 16:00:00 27,4 9,2 5 3 16 9 WSW 0,0
13.07.2018 15:00:00 25,3 10,7 4 2 13 7 SE 0,0
13.07.2018 14:00:00 25,3 9,2 4 2 13 7 W -
13.07.2018 13:00:00 24,3 8,7 2 1 11 6 NNE 0,0
13.07.2018 12:00:00 25,1 10,2 4 2 13 7 SSW 0,0
13.07.2018 11:00:00 24,3 9,5 2 1 11 6 N 0,0
13.07.2018 10:00:00 23,3 12,6 4 2 16 9 ESE 0,0
13.07.2018 09:00:00 21,5 12,1 4 2 15 8 E 0,0
13.07.2018 08:00:00 18,3 11,6 4 2 11 6 E -
13.07.2018 07:00:00 15,3 10,9 5 3 15 8 E 0,0
13.07.2018 06:00:00 14,5 10,5 4 2 13 7 E 0,0
13.07.2018 05:00:00 14,8 10,6 4 2 15 8 E 0,0
13.07.2018 04:00:00 14,9 10,7 4 2 16 9 E 0,0
13.07.2018 03:00:00 14,9 10,9 4 2 13 7 E 0,0
13.07.2018 02:00:00 14,0 10,8 0 0 9 5 N -
13.07.2018 01:00:00 14,6 11,0 0 0 8 4 N 0,0
13.07.2018 00:00:00 16,7 11,0 4 2 26 14 NE 0,0
12.07.2018 23:00:00 16,4 10,9 5 3 16 9 ENE 0,0
12.07.2018 22:00:00 18,1 10,5 2 1 11 6 E 0,0
12.07.2018 21:00:00 19,8 9,7 4 2 11 6 NE 0,0
12.07.2018 20:00:00 22,7 11,4 0 0 15 8 N -
12.07.2018 19:00:00 24,3 7,0 4 2 16 9 NE 0,0
12.07.2018 18:00:00 24,6 8,9 4 2 11 6 NNE 0,0
12.07.2018 17:00:00 24,1 8,1 4 2 18 10 NE 0,0
12.07.2018 16:00:00 24,4 9,5 4 2 18 10 NNE 0,2
12.07.2018 15:00:00 23,3 10,0 4 2 16 9 E 0,0
12.07.2018 14:00:00 23,0 9,0 4 2 18 10 ENE -
12.07.2018 13:00:00 21,9 8,7 5 3 22 12 ENE 0,0
12.07.2018 12:00:00 21,8 9,3 5 3 18 10 ENE 0,0
12.07.2018 11:00:00 20,6 7,6 8 4 24 13 ENE 0,0
12.07.2018 10:00:00 20,2 8,5 4 2 15 8 E 0,0
12.07.2018 09:00:00 20,1 10,2 2 1 8 4 E 0,0
12.07.2018 08:00:00 17,2 9,1 2 1 8 4 E -
12.07.2018 07:00:00 11,4 7,9 0 0 5 3 N 0,0
12.07.2018 06:00:00 11,1 7,4 2 1 5 3 E 0,0
12.07.2018 05:00:00 11,4 7,5 4 2 5 3 E 0,0
12.07.2018 04:00:00 11,2 7,5 0 0 8 4 N 0,0
12.07.2018 03:00:00 11,9 7,4 2 1 18 10 E 0,0
12.07.2018 02:00:00 12,3 7,4 4 2 21 11 E -
12.07.2018 01:00:00 11,5 7,4 4 2 15 8 ENE 0,0
12.07.2018 00:00:00 11,8 7,7 4 2 16 9 ENE 0,0
11.07.2018 23:00:00 12,9 8,8 4 2 15 8 E 0,0
11.07.2018 22:00:00 14,0 9,0 2 1 8 4 E 0,0
11.07.2018 21:00:00 16,4 9,1 2 1 16 9 NNE 0,0
11.07.2018 20:00:00 18,7 10,0 2 1 11 6 NE -
11.07.2018 19:00:00 18,1 10,2 2 1 18 10 ENE 0,0
11.07.2018 18:00:00 18,2 9,8 2 1 18 10 ENE 0,0
11.07.2018 17:00:00 19,1 9,8 5 3 22 12 NNE 0,0
11.07.2018 16:00:00 18,6 9,9 2 1 18 10 ENE 0,0
11.07.2018 15:00:00 17,7 9,1 4 2 22 12 N 0,0
11.07.2018 14:00:00 16,5 10,1 5 3 21 11 NE -
11.07.2018 13:00:00 15,7 10,0 4 2 18 10 NE 0,0
11.07.2018 12:00:00 16,4 9,3 4 2 21 11 NE 0,0
11.07.2018 11:00:00 16,0 9,4 4 2 16 9 NE 0,0
11.07.2018 10:00:00 14,4 9,6 4 2 16 9 NNE 0,0
11.07.2018 09:00:00 15,0 10,4 4 2 21 11 ENE 0,0
11.07.2018 08:00:00 12,4 10,1 4 2 26 14 ENE -
11.07.2018 07:00:00 10,3 9,4 4 2 22 12 ENE 0,0
11.07.2018 06:00:00 9,4 8,3 5 3 18 10 ENE 0,0
11.07.2018 05:00:00 9,3 8,1 5 3 16 9 ENE 0,0
11.07.2018 04:00:00 9,5 7,8 4 2 15 8 ENE 0,0
11.07.2018 03:00:00 9,4 7,0 2 1 15 8 NE 0,0
11.07.2018 02:00:00 10,9 6,8 4 2 18 10 ENE -
11.07.2018 01:00:00 11,7 6,8 4 2 24 13 ENE 0,0
11.07.2018 00:00:00 12,7 6,7 8 4 29 16 ENE 0,0
10.07.2018 23:00:00 13,9 7,0 5 3 22 12 ENE 0,0
10.07.2018 22:00:00 15,3 7,8 5 3 22 12 NNE 0,0
10.07.2018 21:00:00 17,0 8,7 4 2 24 13 WNW 0,0
10.07.2018 20:00:00 19,5 9,7 5 3 22 12 N -
10.07.2018 19:00:00 22,1 11,2 4 2 21 11 NNW 0,0
10.07.2018 18:00:00 21,4 11,7 4 2 22 12 NNW 0,0

tt = temperature
td = dewpoint
ff = wind speed
fx = gusts
dd = wind direction
rr = precipitation

Next stations